Regional Weather Roundup
Issued by NWS New Orleans/Baton Rouge, LA

Home | Current Version | Previous Version | Text Only | Print | Product List | Glossary Off
Versions: 1 2 3 4 5 6 7 8 9 10 11 12 13 14 15 16 17 18 19 20 21 22 23 24 25 26 27 28 29 30 31 32 33 34 35 36 37 38 39 40 41 42 43 44 45 46 47 48 49 50

926
ASUS44 KLIX 262001
RWRLIX
NEW ORLEANS REGIONAL WEATHER ROUNDUP
NATIONAL WEATHER SERVICE NEW ORLEANS LA
200 PM CST MON JAN 26 2015

NOTE: "FAIR" INDICATES FEW OR NO CLOUDS BELOW 12,000 FEET WITH NO
      SIGNIFICANT WEATHER AND/OR OBSTRUCTIONS TO VISIBILITY.
      SKY/WX - SKY CONDITION AND SIGNIFICANT WEATHER.
      TMP - AIR TEMPERATURE.     DP    - DEWPOINT TEMPERATURE.
      RH  - RELATIVE HUMIDITY.   PRES  - PRESSURE.
      HI  - HEAT INDEX.          WCI   - WIND CHILL INDEX.

*  THESE STATIONS ARE NOT NWS OR FAA STATIONS AND ARE NOT UNDER
   NWS QUALITY CONTROL.

LAZ038-040-048-061>063-065>067-069-262100-
SOUTHEAST LOUISIANA

CITY           SKY/WX    TMP DP  RH WIND       PRES   REMARKS
N.O. AUDUBON     N/A     60  40  49 MISG        N/A
N.O. INTL ARPT MOSUNNY   60  35  39 NW14      30.07F
N.O. LAKEFRONT SUNNY     57  45  64 W9        30.06F
N.O. DOWNTOWN*   N/A     59  36  41 NW8       30.07F
SLIDELL        SUNNY     65  34  31 NW9       30.04F
BATON ROUGE    SUNNY     61  31  32 NW10G20   30.07F
BOOTHVILLE     SUNNY     56  39  53 NW12      30.07F
BELLE CHASSE   MOSUNNY   60  34  37 NW12      30.06F
BOGALUSA*        N/A     61  32  33 N13G20    30.06F
GALLIANO*      NOT AVBL
NEW ROADS*     NOT AVBL
GONZALES*      NOT AVBL
HAMMOND*       NOT AVBL
HOUMA*         SUNNY     63  37  39 NW10      30.08F
PORT FOURCHON* CLEAR     55  41  58 W15       30.12S

$$

MSZ070-080>082-262100-
SOUTHERN MISSISSIPPI

CITY           SKY/WX    TMP DP  RH WIND       PRES   REMARKS
MCCOMB         SUNNY     58  32  37 NW13      30.07F
GULFPORT       SUNNY     61  34  36 N18G24    30.01F
BILOXI         SUNNY     61  35  37 N15       30.02F
PASCAGOULA     SUNNY     60  34  37 N13G21    30.01S
STENNIS ARPT*  SUNNY     61  28  29 N14       30.03F

$$

COASTAL OBSERVATIONS
LAKE AND NEARSHORE STATIONS

STATION/POSITION TIME  TEMP    WIND        PRES    WAVE
                       AIR SEA DIR/SP/G            HT/PER
                 (UTC) (F)     (DEG/KT/KT) (MB)    (FT/S)
PASCAGOULA       1923   58     310/ 12/ 18 1015.7
WAVELAND YACHT   1923   56     340/ 14/ 16 1016.1
GRAND ISLE       1923   55 56  350/  7/ 11 1019.0
SOUTHWEST PASS   1923   62 46  320/ 11/ 13 1018.6
NEW CANAL        1923   54 53  300/  3/  6 1018.7
SHELL BEACH      1923   53 53  310/ 15/ 17 1017.8

OFFSHORE STATIONS

STATION/POSITION TIME  TEMP    WIND        PRES    WAVE
                       AIR SEA DIR/SP/G            HT/PER
                 (UTC) (F)     (DEG/KT/KT) (MB)    (FT/S)
64 S DAUPHIN ISL 1904   53 71  320/ 17/ 23 1017.3    6/ 6

$$




USA.gov is the U.S. government's official web portal to all federal, state and local government web resources and services.